AUA744J BKPR-LOWW

Flight info

Callsign AUA744J
Flight time 1h 13m
Altitude 36000
Route KUKAD1D KUKAD DCT RETRA DCT GACMO DCT AGLIB DCT NOVLO DCT ZAG DCT OBUTI OBUTI2W
Aircraft A320/M-SDE3FGHIRWY/LB1

Departure

Time 2026-05-04 17:29
Airport Priština Adem Jashari International Airport (BKPR)

Arrival

Time 2026-05-04 18:42
Airport Vienna International Airport (LOWW)
Time Latitude Longitude Altitude Speed Heading
2026-05-04 17:11 42.58422 21.03088 1780 ft 0 kts 283°
2026-05-04 17:22 42.58418 21.03066 1778 ft 1 kts 234°
2026-05-04 17:23 42.58329 21.03248 1777 ft 9 kts 193°
2026-05-04 17:23 42.58228 21.03247 1777 ft 17 kts 176°
2026-05-04 17:23 42.58000 21.03270 1777 ft 25 kts 176°
2026-05-04 17:24 42.57965 21.03273 1778 ft 25 kts 176°
2026-05-04 17:24 42.57399 21.03331 1775 ft 29 kts 175°
2026-05-04 17:25 42.57194 21.03351 1775 ft 30 kts 176°
2026-05-04 17:25 42.56763 21.03394 1774 ft 32 kts 175°
2026-05-04 17:26 42.56326 21.03439 1773 ft 25 kts 175°
2026-05-04 17:26 42.56169 21.03487 1773 ft 9 kts 79°
2026-05-04 17:27 42.56308 21.03665 1773 ft 15 kts 56°
2026-05-04 17:27 42.56652 21.03651 1772 ft 76 kts 355°
2026-05-04 17:28 42.58484 21.03463 1933 ft 169 kts 355°
2026-05-04 17:29 42.62210 21.03086 3502 ft 203 kts 358°
2026-05-04 17:29 42.65988 20.99754 4977 ft 250 kts 301°
2026-05-04 17:30 42.68435 20.94144 7253 ft 258 kts 298°
2026-05-04 17:31 42.68521 20.89309 8631 ft 278 kts 243°
2026-05-04 17:31 42.63937 20.83953 10540 ft 303 kts 215°
2026-05-04 17:32 42.60486 20.80497 11968 ft 313 kts 217°
2026-05-04 17:33 42.55130 20.75086 14091 ft 327 kts 218°
2026-05-04 17:33 42.53295 20.73227 14692 ft 332 kts 218°
2026-05-04 17:34 42.48525 20.66325 16202 ft 351 kts 248°
2026-05-04 17:34 42.47799 20.63118 16338 ft 364 kts 267°
2026-05-04 17:35 42.49910 20.53159 17272 ft 383 kts 299°
2026-05-04 17:35 42.52181 20.46500 18459 ft 390 kts 300°
2026-05-04 17:35 42.53303 20.43190 19030 ft 392 kts 299°
2026-05-04 17:36 42.54442 20.39817 19605 ft 394 kts 299°
2026-05-04 17:36 42.55584 20.36432 20171 ft 396 kts 299°
2026-05-04 17:36 42.56730 20.33022 20731 ft 398 kts 299°
2026-05-04 17:36 42.57878 20.29590 21281 ft 400 kts 298°
2026-05-04 17:37 42.59031 20.26140 21803 ft 402 kts 298°
2026-05-04 17:37 42.60190 20.22672 22306 ft 405 kts 298°
2026-05-04 17:37 42.61356 20.19181 22808 ft 407 kts 298°
2026-05-04 17:37 42.62527 20.15672 23264 ft 409 kts 298°
2026-05-04 17:38 42.63702 20.12141 23724 ft 411 kts 298°
2026-05-04 17:38 42.64879 20.08598 24102 ft 413 kts 298°
2026-05-04 17:38 42.65585 20.06465 24342 ft 415 kts 298°
2026-05-04 17:38 42.66773 20.02880 24729 ft 417 kts 298°
2026-05-04 17:39 42.69166 19.95684 25492 ft 420 kts 298°
2026-05-04 17:39 42.70368 19.92064 25847 ft 421 kts 298°
2026-05-04 17:39 42.71570 19.88423 26206 ft 423 kts 298°
2026-05-04 17:40 42.72776 19.84758 26528 ft 425 kts 298°
2026-05-04 17:40 42.73985 19.81075 26859 ft 426 kts 298°
2026-05-04 17:40 42.75199 19.77384 27183 ft 427 kts 297°
2026-05-04 17:40 42.76412 19.73692 27530 ft 428 kts 297°
2026-05-04 17:41 42.77627 19.69989 27846 ft 429 kts 297°
2026-05-04 17:41 42.78832 19.66312 28153 ft 431 kts 297°
2026-05-04 17:41 42.80054 19.62577 28448 ft 432 kts 297°
2026-05-04 17:41 42.81278 19.58835 28745 ft 433 kts 297°
2026-05-04 17:42 42.82507 19.55077 29019 ft 435 kts 297°
2026-05-04 17:42 42.83735 19.51311 29277 ft 436 kts 297°
2026-05-04 17:42 42.84974 19.47508 29544 ft 438 kts 297°
2026-05-04 17:42 42.86206 19.43712 29844 ft 438 kts 297°
2026-05-04 17:43 42.87434 19.39920 30188 ft 437 kts 297°
2026-05-04 17:43 42.88660 19.36130 30489 ft 436 kts 297°
2026-05-04 17:43 42.89880 19.32349 30784 ft 435 kts 297°
2026-05-04 17:43 42.91100 19.28572 31082 ft 435 kts 297°
2026-05-04 17:44 42.92319 19.24799 31393 ft 434 kts 297°
2026-05-04 17:44 42.93534 19.21034 31692 ft 433 kts 297°
2026-05-04 17:44 42.94746 19.17276 31986 ft 433 kts 297°
2026-05-04 17:44 42.95959 19.13513 32300 ft 432 kts 296°
2026-05-04 17:45 42.97163 19.09761 32589 ft 431 kts 296°
2026-05-04 17:45 42.98361 19.06018 32905 ft 429 kts 296°
2026-05-04 17:45 42.99556 19.02277 33197 ft 429 kts 296°
2026-05-04 17:45 43.00734 18.98593 33493 ft 428 kts 296°
2026-05-04 17:46 43.01936 18.94826 33778 ft 427 kts 296°
2026-05-04 17:46 43.03118 18.91111 34046 ft 427 kts 296°
2026-05-04 17:46 43.04303 18.87383 34268 ft 427 kts 296°
2026-05-04 17:46 43.05470 18.83708 34522 ft 427 kts 296°
2026-05-04 17:47 43.06651 18.79986 34770 ft 426 kts 296°
2026-05-04 17:47 43.07830 18.76270 35006 ft 425 kts 296°
2026-05-04 17:47 43.09002 18.72566 35294 ft 423 kts 296°
2026-05-04 17:47 43.10170 18.68865 35552 ft 422 kts 296°
2026-05-04 17:48 43.11334 18.65173 35769 ft 422 kts 295°
2026-05-04 17:48 43.12624 18.61570 35993 ft 420 kts 303°
2026-05-04 17:48 43.16259 18.55370 36114 ft 418 kts 319°
2026-05-04 17:49 43.21126 18.51095 36113 ft 418 kts 333°
2026-05-04 17:49 43.26346 18.47570 36105 ft 418 kts 333°
2026-05-04 17:50 43.31565 18.44039 36107 ft 418 kts 333°
2026-05-04 17:50 43.36775 18.40479 36096 ft 419 kts 333°
2026-05-04 17:51 43.41107 18.37506 36099 ft 419 kts 333°
2026-05-04 17:51 43.46320 18.33918 36100 ft 419 kts 333°
2026-05-04 17:52 43.51541 18.30323 36097 ft 419 kts 333°
2026-05-04 17:52 43.56758 18.26724 36093 ft 419 kts 333°
2026-05-04 17:53 43.61980 18.23119 36064 ft 420 kts 333°
2026-05-04 17:53 43.67205 18.19512 36062 ft 420 kts 333°
2026-05-04 17:54 43.72431 18.15886 36058 ft 420 kts 333°
2026-05-04 17:54 43.77659 18.12250 36061 ft 420 kts 333°
2026-05-04 17:55 43.82887 18.08619 36062 ft 420 kts 333°
2026-05-04 17:55 43.88111 18.04974 36061 ft 421 kts 333°
2026-05-04 17:56 43.93341 18.01320 36063 ft 421 kts 333°
2026-05-04 17:56 43.98566 17.97651 36053 ft 421 kts 333°
2026-05-04 17:57 44.03803 17.93978 36046 ft 422 kts 333°
2026-05-04 17:57 44.09015 17.90323 36047 ft 422 kts 333°
2026-05-04 17:58 44.14264 17.86631 36051 ft 423 kts 333°
2026-05-04 17:58 44.19514 17.82926 36063 ft 423 kts 333°
2026-05-04 17:59 44.24766 17.79219 36058 ft 423 kts 333°
2026-05-04 18:00 44.32653 17.73612 36044 ft 424 kts 332°
2026-05-04 18:00 44.37909 17.69880 36047 ft 425 kts 332°
2026-05-04 18:01 44.43178 17.66128 36047 ft 425 kts 332°
2026-05-04 18:01 44.48444 17.62370 36046 ft 425 kts 332°
2026-05-04 18:02 44.56363 17.56700 36041 ft 426 kts 332°
2026-05-04 18:02 44.61648 17.52911 36040 ft 426 kts 332°
2026-05-04 18:03 44.66938 17.49110 36031 ft 427 kts 332°
2026-05-04 18:03 44.72228 17.45299 36027 ft 427 kts 332°
2026-05-04 18:04 44.77519 17.41476 36026 ft 428 kts 332°
2026-05-04 18:05 44.85428 17.35758 36025 ft 428 kts 332°
2026-05-04 18:05 44.90731 17.31911 36023 ft 428 kts 332°
2026-05-04 18:06 44.98678 17.26132 36019 ft 428 kts 332°
2026-05-04 18:06 45.03972 17.22269 36022 ft 428 kts 332°
2026-05-04 18:07 45.09281 17.18387 36030 ft 429 kts 331°
2026-05-04 18:07 45.14041 17.13378 36019 ft 428 kts 313°
2026-05-04 18:08 45.17566 17.06668 36020 ft 428 kts 304°
2026-05-04 18:08 45.20885 16.99655 36020 ft 428 kts 304°
2026-05-04 18:09 45.24915 16.93494 36014 ft 428 kts 322°
2026-05-04 18:09 45.29843 16.88732 36015 ft 428 kts 325°
2026-05-04 18:10 45.34785 16.83984 36015 ft 429 kts 325°
2026-05-04 18:10 45.39728 16.79212 36010 ft 429 kts 325°
2026-05-04 18:11 45.44673 16.74438 36011 ft 430 kts 325°
2026-05-04 18:11 45.49618 16.69660 36009 ft 430 kts 325°
2026-05-04 18:12 45.54570 16.64873 36003 ft 430 kts 325°
2026-05-04 18:12 45.59491 16.60092 36001 ft 430 kts 324°
2026-05-04 18:13 45.64436 16.55277 36001 ft 430 kts 324°
2026-05-04 18:14 45.71855 16.48031 36009 ft 430 kts 324°
2026-05-04 18:14 45.76809 16.43196 36014 ft 431 kts 324°
2026-05-04 18:15 45.86747 16.33577 36012 ft 432 kts 330°
2026-05-04 18:16 45.92405 16.30688 36005 ft 435 kts 349°
2026-05-04 18:16 45.98474 16.30076 35998 ft 438 kts 355°
2026-05-04 18:17 46.07571 16.29466 35992 ft 438 kts 355°
2026-05-04 18:18 46.16714 16.28841 35991 ft 439 kts 355°
2026-05-04 18:18 46.22819 16.28422 36002 ft 439 kts 355°
2026-05-04 18:19 46.31987 16.27796 35991 ft 439 kts 355°
2026-05-04 18:19 46.38092 16.27319 35992 ft 439 kts 351°
2026-05-04 18:20 46.44113 16.25936 35996 ft 438 kts 348°
2026-05-04 18:20 46.50141 16.24503 35963 ft 438 kts 348°
2026-05-04 18:21 46.53100 16.23799 35369 ft 437 kts 349°
2026-05-04 18:21 46.56110 16.23082 34576 ft 439 kts 349°
2026-05-04 18:21 46.59129 16.22364 33769 ft 440 kts 349°
2026-05-04 18:21 46.62154 16.21645 32856 ft 442 kts 349°
2026-05-04 18:22 46.65197 16.20917 31925 ft 444 kts 349°
2026-05-04 18:22 46.68258 16.20185 30951 ft 447 kts 349°
2026-05-04 18:22 46.71340 16.19450 29962 ft 451 kts 348°
2026-05-04 18:22 46.74443 16.18710 28826 ft 453 kts 349°
2026-05-04 18:23 46.77551 16.17968 28014 ft 450 kts 348°
2026-05-04 18:23 46.80632 16.17233 27257 ft 446 kts 349°
2026-05-04 18:23 46.83677 16.16507 26529 ft 441 kts 349°
2026-05-04 18:23 46.86693 16.15784 25865 ft 437 kts 349°
2026-05-04 18:24 46.89687 16.15068 25184 ft 433 kts 349°
2026-05-04 18:24 46.92651 16.14360 24521 ft 430 kts 349°
2026-05-04 18:24 46.95591 16.13654 23887 ft 427 kts 349°
2026-05-04 18:24 46.98511 16.12954 23222 ft 423 kts 349°
2026-05-04 18:25 47.01405 16.12256 22505 ft 421 kts 349°
2026-05-04 18:25 47.04292 16.11557 21830 ft 418 kts 349°
2026-05-04 18:25 47.07153 16.10862 21190 ft 416 kts 348°
2026-05-04 18:25 47.10001 16.10170 20586 ft 413 kts 349°
2026-05-04 18:26 47.12829 16.09481 20008 ft 410 kts 349°
2026-05-04 18:26 47.15639 16.08795 19446 ft 408 kts 349°
2026-05-04 18:26 47.18432 16.08115 18900 ft 406 kts 349°
2026-05-04 18:26 47.21179 16.07451 18381 ft 404 kts 349°
2026-05-04 18:27 47.23946 16.06781 18032 ft 403 kts 349°
2026-05-04 18:27 47.26750 16.06132 17973 ft 404 kts 353°
2026-05-04 18:27 47.29538 16.06061 17904 ft 406 kts 359°
2026-05-04 18:27 47.32361 16.06118 17638 ft 406 kts 359°
2026-05-04 18:28 47.35182 16.06188 17364 ft 406 kts 359°
2026-05-04 18:28 47.38006 16.06265 17094 ft 405 kts 359°
2026-05-04 18:28 47.40818 16.06346 16842 ft 404 kts 360°
2026-05-04 18:28 47.43616 16.06422 16581 ft 402 kts 359°
2026-05-04 18:29 47.46416 16.06491 16328 ft 401 kts 360°
2026-05-04 18:29 47.49210 16.06555 16073 ft 400 kts 360°
2026-05-04 18:29 47.51984 16.06621 15823 ft 398 kts 359°
2026-05-04 18:29 47.54750 16.06690 15581 ft 397 kts 359°
2026-05-04 18:30 47.60268 16.06828 15090 ft 395 kts 359°
2026-05-04 18:30 47.63010 16.06898 14836 ft 394 kts 359°
2026-05-04 18:30 47.65747 16.06967 14594 ft 392 kts 360°
2026-05-04 18:31 47.68472 16.07036 14356 ft 391 kts 360°
2026-05-04 18:31 47.71187 16.07103 14110 ft 390 kts 359°
2026-05-04 18:31 47.73899 16.07168 13873 ft 389 kts 359°
2026-05-04 18:31 47.76606 16.07233 13624 ft 388 kts 360°
2026-05-04 18:32 47.79301 16.07302 13351 ft 386 kts 360°
2026-05-04 18:32 47.81986 16.07373 13096 ft 385 kts 359°
2026-05-04 18:32 47.84653 16.07442 12592 ft 380 kts 359°
2026-05-04 18:32 47.87292 16.07509 12059 ft 377 kts 360°
2026-05-04 18:33 47.89904 16.07574 11499 ft 374 kts 360°
2026-05-04 18:33 47.92469 16.07638 10948 ft 372 kts 359°
2026-05-04 18:33 47.95046 16.07704 10435 ft 368 kts 360°
2026-05-04 18:33 47.97587 16.07767 10018 ft 358 kts 360°
2026-05-04 18:34 47.99978 16.07830 9896 ft 330 kts 360°
2026-05-04 18:34 48.02191 16.07889 9675 ft 309 kts 360°
2026-05-04 18:34 48.04318 16.07940 9434 ft 302 kts 360°
2026-05-04 18:34 48.05708 16.07972 9190 ft 300 kts
2026-05-04 18:35 48.07789 16.08024 8817 ft 298 kts 359°
2026-05-04 18:35 48.09852 16.08240 8454 ft 297 kts 13°
2026-05-04 18:35 48.11730 16.09501 7967 ft 299 kts 33°
2026-05-04 18:35 48.13454 16.11261 7471 ft 301 kts 35°
2026-05-04 18:36 48.15169 16.13089 6981 ft 303 kts 35°
2026-05-04 18:36 48.16883 16.14933 6478 ft 304 kts 36°
2026-05-04 18:36 48.18621 16.16792 5848 ft 309 kts 35°
2026-05-04 18:36 48.20271 16.18785 5573 ft 299 kts 49°
2026-05-04 18:37 48.21281 16.21413 5227 ft 290 kts 78°
2026-05-04 18:37 48.21427 16.24357 4810 ft 282 kts 103°
2026-05-04 18:37 48.20794 16.27013 4441 ft 262 kts 120°
2026-05-04 18:37 48.20018 16.29413 4101 ft 250 kts 120°
2026-05-04 18:38 48.19290 16.31680 3769 ft 229 kts 121°
2026-05-04 18:38 48.18631 16.33730 3480 ft 208 kts 121°
2026-05-04 18:38 48.18023 16.35611 3228 ft 194 kts 122°
2026-05-04 18:38 48.17440 16.37411 2964 ft 190 kts 122°
2026-05-04 18:39 48.16871 16.39169 2711 ft 185 kts 122°
2026-05-04 18:39 48.16330 16.40846 2454 ft 174 kts 122°
2026-05-04 18:39 48.15808 16.42457 2231 ft 170 kts 122°
2026-05-04 18:39 48.15311 16.43996 1979 ft 157 kts 123°
2026-05-04 18:40 48.14869 16.45367 1783 ft 141 kts 123°
2026-05-04 18:40 48.14452 16.46654 1604 ft 134 kts 126°
2026-05-04 18:40 48.14041 16.47914 1410 ft 133 kts 123°
2026-05-04 18:40 48.13634 16.49146 1227 ft 131 kts 122°
2026-05-04 18:41 48.13242 16.50379 1087 ft 131 kts 120°
2026-05-04 18:41 48.12844 16.51612 894 ft 132 kts 118°
2026-05-04 18:41 48.12448 16.52830 732 ft 131 kts 118°
2026-05-04 18:41 48.12058 16.54031 611 ft 120 kts 118°
2026-05-04 18:42 48.11743 16.54990 616 ft 78 kts 116°
2026-05-04 18:42 48.11570 16.55524 619 ft 46 kts 115°
2026-05-04 18:42 48.11498 16.55863 623 ft 23 kts 96°
2026-05-04 18:42 48.11503 16.56037 624 ft 8 kts 83°
2026-05-04 18:43 48.11511 16.56101 618 ft 4 kts 70°
2026-05-04 18:43 48.11538 16.56140 626 ft 0 kts 27°
2026-05-04 18:44 48.11548 16.56147 617 ft 7 kts 24°
2026-05-04 18:44 48.11622 16.56199 618 ft 11 kts 28°
2026-05-04 18:44 48.11685 16.56266 618 ft 12 kts 26°
2026-05-04 18:45 48.11756 16.56331 611 ft 12 kts 65°
2026-05-04 18:45 48.11745 16.56417 613 ft 4 kts 118°
2026-05-04 18:45 48.11730 16.56457 612 ft 0 kts 118°
2026-05-04 18:45 48.11729 16.56462 611 ft 4 kts 118°
2026-05-04 18:46 48.11696 16.56557 609 ft 12 kts 117°
2026-05-04 18:46 48.11661 16.56664 606 ft 7 kts 115°
2026-05-04 18:46 48.11687 16.56706 617 ft 5 kts 22°
2026-05-04 18:46 48.11713 16.56726 603 ft 3 kts 26°
2026-05-04 18:47 48.11731 16.56739 603 ft 3 kts 25°